Weather History for MRLB - May, 2013

Change the Weather History Date:

Wednesday, May 22, 2013

  Actual Average Record
Temperature  
Mean Temperature 81 °F -  
Max Temperature 89 °F 87 °F 94 °F (2014)
Min Temperature 73 °F 75 °F 72 °F (2014)
Cooling Degree Days 16    
Growing Degree Days 31 (Base 50)    
Moisture  
Dew Point 73 °F    
Average Humidity 86    
Maximum Humidity 100    
Minimum Humidity 50    
Precipitation  
Precipitation 2.13 in - - ()
Sea Level Pressure  
Sea Level Pressure 29.83 in    
Wind  
Wind Speed 4 mph ()    
Max Wind Speed 13 mph    
Max Gust Speed -    
Visibility 6.1 miles    
Events Fog , Rain , Thunderstorm    
Averages and records for this station are not official NWS values.
T = Trace of Precipitation, MM = Missing Value Source: Averaged Metar Reports

Daily Weather History Graph

Daily Weather History Graph

Search for Another Location

Airport or City:

Trip Planner

Search our weather history database for the weather conditions in past years. The results will help you decide how hot, cold, wet, or windy it might be!

Date:

Astronomy

May. 22, 2013 Rise Set
Actual Time 5:19 AM CST 5:58 PM CST
Civil Twilight 4:56 AM CST 6:21 PM CST
Nautical Twilight 4:30 AM CST 6:47 PM CST
Astronomical Twilight 4:03 AM CST 7:14 PM CST
Moon 3:41 PM CST (5/22) 2:54 AM CST (5/22)
Length of Visible Light 13h 24m
Length of Day
12h 39m
Waxing Gibbous, 92% of the Moon is Illuminated
May 22
Waxing Gibbous
May 24
Full
May 31
Last Quarter
Jun 8
New
Jun 16
First Quarter

Hourly Weather History & Observations

Time (CST) Temp. Heat Index Dew Point Humidity Pressure Visibility Wind Dir Wind Speed Gust Speed Precip Events Conditions
6:00 AM 75 °F - 73 °F 91% 29.84 in 5 mi South 3.5 mph - -   Overcast
6:00 AM 75.2 °F - 73.4 °F 94% 29.83 in 5.0 mi South 3.5 mph - N/A Fog Fog
7:00 AM 75.2 °F - 73.4 °F 94% 29.84 in 6.2 mi SE 3.5 mph - N/A Fog Mostly Cloudy
8:00 AM 80.6 °F 85.4 °F 73.4 °F 79% 29.86 in 6.2 mi SSE 3.5 mph - N/A   Mostly Cloudy
9:00 AM 80 °F - 74 °F 78% 29.90 in 12 mi SSE 5.8 mph - -   Overcast
9:00 AM 80.6 °F 85.4 °F 73.4 °F 79% 29.88 in 6.2 mi SSE 5.8 mph - N/A   Mostly Cloudy
10:00 AM 82.4 °F 89.5 °F 75.2 °F 79% 29.88 in 6.2 mi SSW 5.8 mph - N/A   Scattered Clouds
11:00 AM 87.8 °F 95.6 °F 73.4 °F 62% 29.85 in 6.2 mi SE 5.8 mph - N/A   Mostly Cloudy
12:00 PM 87 °F - 71 °F 50% 29.85 in 12 mi South 5.8 mph - -   Overcast
12:00 PM 86.0 °F 91.8 °F 71.6 °F 62% 29.83 in 6.2 mi South 5.8 mph - N/A   Mostly Cloudy
1:00 PM 82.4 °F 88.2 °F 73.4 °F 74% 29.80 in 6.2 mi WSW 12.7 mph - N/A Rain , Thunderstorm Light Rain Showers
1:06 PM 78.8 °F - 75.2 °F 89% - 0.6 mi NNW 11.5 mph - N/A Rain , Thunderstorm Rain Showers
1:38 PM 73.4 °F - 69.8 °F 88% 29.81 in 6.2 mi West 11.5 mph - N/A Rain , Thunderstorm Light Thunderstorms and Rain
2:00 PM 73.4 °F - 71.6 °F 94% - 3.7 mi SSE 3.5 mph - N/A Rain , Thunderstorm Light Rain
2:15 PM 73.4 °F - 71.6 °F 94% 29.78 in 6.2 mi WSW 3.5 mph - N/A Rain Light Rain
3:00 PM 74 °F - 73 °F 94% 29.80 in 12 mi NNE 3.5 mph - -   Partly Cloudy
3:00 PM 75.2 °F - 73.4 °F 94% 29.78 in 6.2 mi NNE 3.5 mph - N/A   Mostly Cloudy
4:00 PM 75.2 °F - 73.4 °F 94% 29.78 in 6.2 mi East 4.6 mph - N/A   Scattered Clouds
5:00 PM 77.0 °F - 75.2 °F 94% 29.80 in 5.6 mi North 3.5 mph - N/A Rain Light Rain
6:00 PM 76 °F - 74 °F 93% 29.84 in 6 mi NE 4.6 mph - - Rain Light Rain
6:00 PM 77.0 °F - 75.2 °F 94% 29.83 in 5.0 mi NE 4.6 mph - N/A Rain Light Rain
6:25 PM 75.2 °F - 73.4 °F 94% 29.84 in 3.1 mi East 3.5 mph - N/A Rain Rain
7:00 PM 73.4 °F - 73.4 °F 100% 29.85 in 3.1 mi SE 4.6 mph - N/A Rain Rain
8:00 PM 75.2 °F - 73.4 °F 94% 29.87 in 4.3 mi North 2.3 mph - N/A Rain Light Rain